QPF
0.00 0.00 0.00 0.00 0.00 0.00 0.00 0.00 0.00 0.00 0.00 0.00 0.00 0.00 0.00 0.00 0.00 0.00 0.00 0.00 0.00 0.00 0.00 0.00 0.00 0.00 0.00 0.00 0.00 0.00 0.00 0.00 0.00 0.00 0.00 0.00 0.00 0.00 0.00 0.00 0.00 0.00 0.00
0.00 0.00 0.00 0.00 0.00 0.00 0.00 0.00 0.00 0.00 0.00 0.00 0.00 0.00 0.00 0.00 0.00 0.00 0.00 0.00 0.00 0.00 0.00 0.00 0.00 0.00 0.00 0.00 0.00 0.00 0.00 0.00 0.00 0.00 0.00 0.00 0.00 0.00 0.00 0.00 0.00 0.00 0.00
0.00 0.00 0.00 0.00 0.00 0.00 0.00 0.00 0.00 0.00 0.00 0.00 0.00 0.00 0.00 0.00 0.00 0.00 0.00 0.00 0.00 0.00 0.00 0.00 0.00 0.00 0.00 0.00 0.00 0.00 0.00 0.00 0.00 0.00 0.00 0.00 0.00 0.00 0.00 0.00 0.00 0.00 0.00
0.00 0.00 0.00 0.00 0.00 0.00 0.00 0.00 0.00 0.00 0.00 0.00 0.00 0.00 0.00 0.00 0.00 0.00 0.00 0.00 0.00 0.00 0.00 0.00 0.00 0.00 0.00 0.00 0.00 0.00 0.00 0.00 0.00 0.00 0.00 0.00 0.00 0.00 0.00 0.00 0.00 0.00 0.00
0.00 0.00 0.00 0.00 0.00 0.00 0.00 0.00 0.00 0.00 0.00 0.00 0.00 0.00 0.00 0.00 0.00 0.00 0.00 0.00 0.00 0.00 0.00 0.00 0.00 0.00 0.00 0.00 0.00 0.00 0.00 0.00 0.00 0.00 0.00 0.00 0.00 0.00 0.00 0.00 0.00 0.00 0.00
0.00 0.00 0.00 0.00 0.00 0.00 0.00 0.00 0.00 0.00 0.00 0.00 0.00 0.00 0.00 0.00 0.00 0.00 0.00 0.00 0.00 0.00 0.00 0.00 0.00 0.00 0.00 0.00 0.00 0.00 0.00 0.00 0.00 0.00 0.00 0.00 0.00 0.00 0.00 0.00 0.00 0.00 0.00
0.00 0.00 0.00 0.00 0.00 0.00 0.00 0.00 0.00 0.00 0.00 0.00 0.00 0.00 0.00 0.00 0.00 0.00 0.00 0.00 0.00 0.00 0.00 0.00 0.00 0.00 0.00 0.00 0.00 0.00 0.00 0.00 0.00 0.00 0.00 0.00 0.00 0.00 0.00 0.00 0.00 0.00 0.00
0.00 0.00 0.00 0.00 0.00 0.00 0.00 0.00 0.00 0.00 0.00 0.00 0.00 0.00 0.00 0.00 0.00 0.00 0.00 0.00 0.00 0.00 0.00 0.00 0.00 0.00 0.00 0.00 0.00 0.00 0.00 0.00 0.00 0.00 0.00 0.00 0.00 0.00 0.00 0.00 0.00 0.00 0.01
0.00 0.00 0.00 0.00 0.00 0.00 0.00 0.00 0.00 0.00 0.00 0.00 0.00 0.00 0.00 0.00 0.00 0.00 0.00 0.00 0.00 0.00 0.00 0.00 0.00 0.00 0.00 0.00 0.00 0.00 0.00 0.00 0.00 0.00 0.00 0.00 0.00 0.00 0.00 0.01 0.01 0.01 0.02
0.01 0.00 0.00 0.00 0.00 0.00 0.00 0.00 0.00 0.00 0.00 0.00 0.00 0.00 0.00 0.00 0.00 0.00 0.00 0.00 0.00 0.00 0.00 0.00 0.00 0.00 0.00 0.00 0.00 0.00 0.00 0.00 0.00 0.00 0.00 0.00 0.00 0.00 0.01 0.01 0.02 0.02 0.03
0.01 0.00 0.00 0.00 0.00 0.00 0.00 0.00 0.00 0.00 0.00 0.00 0.00 0.00 0.00 0.00 0.00 0.00 0.00 0.00 0.00 0.00 0.00 0.00 0.00 0.00 0.00 0.00 0.00 0.00 0.00 0.00 0.00 0.00 0.00 0.00 0.01 0.01 0.01 0.02 0.02 0.03 0.03
0.00 0.00 0.00 0.00 0.00 0.00 0.00 0.00 0.00 0.00 0.00 0.00 0.00 0.00 0.00 0.00 0.00 0.00 0.00 0.00 0.00 0.00 0.00 0.00 0.00 0.00 0.00 0.00 0.00 0.00 0.00 0.00 0.00 0.00 0.00 0.01 0.01 0.02 0.02 0.03 0.03 0.03 0.03
0.00 0.00 0.00 0.00 0.00 0.00 0.00 0.00 0.00 0.00 0.00 0.00 0.00 0.00 0.00 0.00 0.00 0.00 0.00 0.00 0.00 0.00 0.00 0.00 0.00 0.00 0.00 0.00 0.00 0.00 0.00 0.00 0.00 0.00 0.00 0.01 0.01 0.01 0.01 0.02 0.02 0.03 0.03
0.01 0.01 0.00 0.00 0.00 0.00 0.00 0.00 0.00 0.00 0.00 0.00 0.00 0.00 0.00 0.00 0.00 0.00 0.00 0.00 0.00 0.00 0.00 0.00 0.00 0.00 0.00 0.00 0.00 0.00 0.00 0.00 0.00 0.00 0.00 0.01 0.01 0.01 0.01 0.01 0.02 0.02 0.03
0.01 0.00 0.00 0.00 0.00 0.00 0.00 0.00 0.00 0.00 0.00 0.00 0.00 0.00 0.00 0.00 0.00 0.00 0.00 0.00 0.00 0.00 0.00 0.00 0.00 0.00 0.00 0.00 0.00 0.00 0.00 0.00 0.00 0.00 0.00 0.00 0.01 0.01 0.01 0.01 0.02 0.02 0.02
0.01 0.00 0.00 0.00 0.00 0.00 0.00 0.00 0.00 0.00 0.00 0.00 0.00 0.00 0.00 0.00 0.00 0.00 0.00 0.00 0.00 0.00 0.00 0.00 0.00 0.00 0.00 0.00 0.00 0.00 0.00 0.00 0.00 0.00 0.00 0.00 0.00 0.01 0.01 0.01 0.01 0.01 0.02
0.00 0.00 0.00 0.00 0.00 0.00 0.00 0.00 0.00 0.00 0.00 0.00 0.00 0.00 0.00 0.00 0.00 0.00 0.00 0.00 0.00 0.00 0.00 0.00 0.00 0.00 0.00 0.00 0.00 0.00 0.00 0.00 0.00 0.00 0.00 0.00 0.00 0.00 0.00 0.01 0.01 0.01 0.02
0.00 0.00 0.00 0.00 0.00 0.00 0.00 0.00 0.00 0.00 0.00 0.00 0.00 0.00 0.00 0.00 0.00 0.00 0.00 0.00 0.00 0.00 0.00 0.00 0.00 0.00 0.00 0.00 0.00 0.00 0.00 0.00 0.00 0.00 0.00 0.00 0.00 0.00 0.00 0.01 0.01 0.01 0.02
0.00 0.00 0.00 0.00 0.00 0.00 0.00 0.00 0.00 0.00 0.00 0.00 0.00 0.00 0.00 0.00 0.00 0.00 0.00 0.00 0.00 0.00 0.00 0.00 0.00 0.00 0.00 0.01 0.01 0.00 0.00 0.00 0.00 0.00 0.00 0.00 0.00 0.00 0.00 0.01 0.01 0.01 0.01
0.00 0.00 0.00 0.00 0.00 0.00 0.00 0.00 0.00 0.00 0.00 0.00 0.00 0.00 0.00 0.00 0.00 0.00 0.00 0.00 0.00 0.00 0.00 0.00 0.01 0.01 0.01 0.00 0.00 0.00 0.00 0.00 0.00 0.00 0.00 0.00 0.00 0.00 0.00 0.00 0.00 0.00 0.00
0.00 0.00 0.00 0.00 0.00 0.00 0.00 0.00 0.00 0.00 0.00 0.00 0.00 0.00 0.00 0.00 0.00 0.00 0.00 0.00 0.00 0.01 0.01 0.02 0.02 0.02 0.01 0.00 0.00 0.00 0.00 0.00 0.00 0.00 0.00 0.00 0.00 0.00 0.00 0.00 0.00 0.00 0.00
0.00 0.00 0.00 0.00 0.00 0.00 0.00 0.00 0.00 0.00 0.00 0.00 0.00 0.00 0.00 0.00 0.00 0.00 0.00 0.00 0.01 0.02 0.03 0.03 0.02 0.01 0.00 0.00 0.00 0.00 0.01 0.01 0.01 0.00 0.00 0.00 0.00 0.00 0.00 0.00 0.00 0.00 0.00
0.00 0.00 0.00 0.00 0.00 0.00 0.00 0.00 0.00 0.00 0.00 0.00 0.00 0.00 0.00 0.00 0.00 0.00 0.00 0.01 0.01 0.02 0.02 0.02 0.01 0.00 0.00 0.00 0.01 0.02 0.02 0.02 0.01 0.00 0.00 0.00 0.00 0.00 0.00 0.00 0.00 0.00 0.00
0.00 0.00 0.00 0.00 0.00 0.00 0.00 0.00 0.00 0.00 0.00 0.00 0.00 0.00 0.00 0.00 0.00 0.00 0.01 0.01 0.01 0.00 0.00 0.00 0.00 0.00 0.00 0.01 0.01 0.02 0.02 0.01 0.00 0.00 0.00 0.00 0.00 0.00 0.00 0.00 0.00 0.00 0.00
0.00 0.00 0.00 0.00 0.00 0.00 0.00 0.00 0.00 0.00 0.00 0.00 0.00 0.00 0.00 0.00 0.00 0.01 0.02 0.01 0.00 0.00 0.00 0.00 0.00 0.00 0.01 0.01 0.01 0.01 0.01 0.02 0.01 0.00 0.00 0.00 0.00 0.00 0.00 0.00 0.00 0.00 0.00
0.00 0.00 0.00 0.00 0.00 0.00 0.00 0.00 0.00 0.00 0.00 0.00 0.00 0.00 0.00 0.00 0.01 0.02 0.01 0.01 0.00 0.00 0.00 0.00 0.00 0.00 0.00 0.00 0.00 0.00 0.01 0.04 0.04 0.02 0.00 0.00 0.01 0.01 0.02 0.00 0.00 0.00 0.00
MSLP
1015.08 1015.44 1015.76 1016.04 1016.31 1016.56 1016.78 1016.98 1017.13 1017.22 1017.25 1017.22 1017.15 1017.08 1017.02 1017.02 1017.07 1017.20 1017.37 1017.57 1017.74 1017.88 1017.95 1017.95 1017.88 1017.76 1017.62 1017.49 1017.38 1017.29 1017.22 1017.15 1017.07 1016.97 1016.84 1016.67 1016.48 1016.28 1016.08 1015.89 1015.73 1015.58 1015.47
1014.81 1015.24 1015.63 1016.00 1016.35 1016.66 1016.94 1017.16 1017.33 1017.42 1017.44 1017.39 1017.31 1017.23 1017.17 1017.16 1017.22 1017.35 1017.53 1017.74 1017.94 1018.11 1018.22 1018.26 1018.22 1018.13 1018.01 1017.87 1017.73 1017.61 1017.50 1017.39 1017.29 1017.17 1017.03 1016.87 1016.69 1016.49 1016.29 1016.08 1015.89 1015.71 1015.55
1014.55 1015.04 1015.52 1015.97 1016.40 1016.78 1017.11 1017.37 1017.55 1017.65 1017.66 1017.61 1017.52 1017.42 1017.35 1017.33 1017.37 1017.49 1017.66 1017.87 1018.07 1018.26 1018.39 1018.46 1018.46 1018.40 1018.30 1018.16 1018.01 1017.86 1017.72 1017.58 1017.44 1017.30 1017.15 1016.98 1016.79 1016.59 1016.38 1016.17 1015.95 1015.74 1015.55
1014.34 1014.89 1015.44 1015.98 1016.48 1016.94 1017.32 1017.61 1017.81 1017.90 1017.91 1017.86 1017.76 1017.66 1017.57 1017.54 1017.56 1017.65 1017.79 1017.96 1018.15 1018.33 1018.47 1018.56 1018.59 1018.56 1018.49 1018.37 1018.22 1018.06 1017.89 1017.72 1017.54 1017.37 1017.19 1017.00 1016.80 1016.58 1016.36 1016.12 1015.88 1015.65 1015.43
1014.21 1014.80 1015.42 1016.02 1016.60 1017.11 1017.54 1017.86 1018.07 1018.18 1018.19 1018.14 1018.04 1017.94 1017.85 1017.80 1017.79 1017.84 1017.94 1018.07 1018.22 1018.36 1018.49 1018.58 1018.63 1018.64 1018.59 1018.50 1018.37 1018.21 1018.02 1017.82 1017.61 1017.40 1017.18 1016.95 1016.72 1016.47 1016.22 1015.96 1015.69 1015.43 1015.18
1014.16 1014.78 1015.45 1016.11 1016.74 1017.30 1017.76 1018.11 1018.34 1018.45 1018.48 1018.44 1018.36 1018.27 1018.18 1018.13 1018.10 1018.11 1018.15 1018.22 1018.30 1018.40 1018.49 1018.57 1018.63 1018.65 1018.63 1018.57 1018.46 1018.31 1018.13 1017.91 1017.66 1017.41 1017.14 1016.87 1016.59 1016.31 1016.01 1015.71 1015.42 1015.13 1014.86
1014.18 1014.82 1015.51 1016.21 1016.88 1017.47 1017.96 1018.33 1018.57 1018.71 1018.76 1018.74 1018.70 1018.64 1018.58 1018.52 1018.48 1018.46 1018.44 1018.44 1018.46 1018.48 1018.52 1018.56 1018.61 1018.64 1018.64 1018.61 1018.53 1018.39 1018.21 1017.98 1017.71 1017.42 1017.11 1016.78 1016.46 1016.12 1015.78 1015.45 1015.11 1014.79 1014.50
1014.23 1014.88 1015.59 1016.31 1016.99 1017.60 1018.11 1018.50 1018.76 1018.93 1019.01 1019.04 1019.05 1019.03 1019.01 1018.98 1018.94 1018.89 1018.83 1018.76 1018.69 1018.64 1018.60 1018.59 1018.60 1018.62 1018.63 1018.61 1018.55 1018.43 1018.26 1018.03 1017.74 1017.42 1017.07 1016.70 1016.32 1015.94 1015.57 1015.19 1014.83 1014.48 1014.16
1014.28 1014.93 1015.64 1016.36 1017.06 1017.68 1018.20 1018.60 1018.89 1019.09 1019.22 1019.31 1019.38 1019.43 1019.46 1019.47 1019.45 1019.39 1019.28 1019.15 1019.01 1018.87 1018.75 1018.67 1018.62 1018.60 1018.60 1018.58 1018.53 1018.43 1018.26 1018.03 1017.74 1017.40 1017.02 1016.61 1016.20 1015.78 1015.37 1014.97 1014.58 1014.22 1013.88
1014.30 1014.95 1015.65 1016.37 1017.06 1017.69 1018.21 1018.63 1018.95 1019.19 1019.38 1019.53 1019.67 1019.79 1019.89 1019.96 1019.97 1019.90 1019.78 1019.60 1019.38 1019.16 1018.96 1018.79 1018.67 1018.60 1018.56 1018.52 1018.46 1018.35 1018.19 1017.96 1017.66 1017.31 1016.92 1016.49 1016.06 1015.62 1015.18 1014.77 1014.37 1013.99 1013.65
1014.29 1014.93 1015.62 1016.34 1017.02 1017.64 1018.18 1018.61 1018.96 1019.23 1019.47 1019.69 1019.90 1020.10 1020.27 1020.39 1020.44 1020.40 1020.26 1020.05 1019.78 1019.48 1019.19 1018.94 1018.74 1018.60 1018.50 1018.42 1018.33 1018.21 1018.04 1017.80 1017.50 1017.14 1016.74 1016.31 1015.86 1015.41 1014.97 1014.55 1014.14 1013.77 1013.43
1014.24 1014.88 1015.58 1016.28 1016.96 1017.58 1018.11 1018.55 1018.92 1019.23 1019.51 1019.78 1020.05 1020.31 1020.55 1020.73 1020.82 1020.81 1020.68 1020.45 1020.14 1019.79 1019.43 1019.11 1018.83 1018.61 1018.43 1018.29 1018.15 1018.00 1017.80 1017.55 1017.24 1016.88 1016.47 1016.03 1015.58 1015.13 1014.69 1014.27 1013.87 1013.50 1013.16
1014.17 1014.83 1015.53 1016.24 1016.91 1017.52 1018.05 1018.49 1018.86 1019.19 1019.50 1019.80 1020.12 1020.43 1020.71 1020.94 1021.07 1021.09 1020.98 1020.76 1020.44 1020.06 1019.66 1019.26 1018.91 1018.62 1018.37 1018.15 1017.95 1017.74 1017.50 1017.22 1016.89 1016.51 1016.10 1015.66 1015.20 1014.75 1014.31 1013.88 1013.48 1013.11 1012.77
1014.11 1014.81 1015.52 1016.23 1016.90 1017.50 1018.02 1018.45 1018.82 1019.14 1019.45 1019.77 1020.10 1020.43 1020.74 1021.00 1021.17 1021.23 1021.15 1020.95 1020.64 1020.26 1019.83 1019.41 1019.00 1018.64 1018.31 1018.02 1017.74 1017.46 1017.16 1016.83 1016.47 1016.06 1015.63 1015.18 1014.72 1014.26 1013.81 1013.38 1012.97 1012.59 1012.24
1014.10 1014.83 1015.57 1016.29 1016.95 1017.54 1018.04 1018.45 1018.79 1019.10 1019.39 1019.69 1020.01 1020.34 1020.65 1020.93 1021.12 1021.21 1021.17 1021.01 1020.73 1020.37 1019.95 1019.51 1019.08 1018.66 1018.27 1017.90 1017.55 1017.19 1016.82 1016.43 1016.01 1015.57 1015.10 1014.63 1014.14 1013.67 1013.20 1012.74 1012.32 1011.91 1011.54
1014.14 1014.93 1015.69 1016.42 1017.08 1017.65 1018.12 1018.50 1018.81 1019.07 1019.32 1019.58 1019.86 1020.16 1020.46 1020.73 1020.94 1021.05 1021.05 1020.93 1020.71 1020.39 1020.00 1019.58 1019.13 1018.68 1018.24 1017.81 1017.37 1016.94 1016.49 1016.02 1015.54 1015.04 1014.53 1014.02 1013.51 1013.00 1012.50 1012.02 1011.55 1011.12 1010.72
1014.27 1015.09 1015.88 1016.61 1017.26 1017.82 1018.26 1018.61 1018.87 1019.08 1019.27 1019.48 1019.70 1019.95 1020.21 1020.45 1020.65 1020.77 1020.81 1020.74 1020.57 1020.30 1019.96 1019.57 1019.13 1018.67 1018.19 1017.70 1017.20 1016.69 1016.16 1015.62 1015.06 1014.51 1013.95 1013.39 1012.83 1012.28 1011.74 1011.22 1010.71 1010.24 1009.79
1014.47 1015.31 1016.11 1016.85 1017.49 1018.03 1018.44 1018.74 1018.96 1019.12 1019.25 1019.38 1019.54 1019.72 1019.93 1020.13 1020.30 1020.43 1020.48 1020.45 1020.33 1020.12 1019.83 1019.47 1019.06 1018.59 1018.10 1017.56 1017.00 1016.42 1015.82 1015.21 1014.59 1013.97 1013.35 1012.74 1012.14 1011.54 1010.96 1010.39 1009.84 1009.32 1008.83
1014.74 1015.59 1016.39 1017.12 1017.74 1018.25 1018.63 1018.90 1019.07 1019.18 1019.25 1019.32 1019.40 1019.52 1019.66 1019.80 1019.94 1020.05 1020.10 1020.09 1020.00 1019.83 1019.58 1019.26 1018.87 1018.41 1017.90 1017.34 1016.74 1016.10 1015.44 1014.77 1014.09 1013.42 1012.75 1012.09 1011.44 1010.81 1010.18 1009.57 1008.97 1008.40 1007.86
1015.06 1015.89 1016.68 1017.38 1017.99 1018.47 1018.82 1019.06 1019.19 1019.25 1019.27 1019.28 1019.30 1019.35 1019.42 1019.50 1019.59 1019.66 1019.70 1019.68 1019.60 1019.45 1019.22 1018.92 1018.54 1018.09 1017.58 1017.00 1016.37 1015.70 1015.00 1014.28 1013.56 1012.85 1012.14 1011.44 1010.76 1010.08 1009.42 1008.76 1008.12 1007.50 1006.91
1015.42 1016.22 1016.97 1017.64 1018.22 1018.67 1019.00 1019.20 1019.30 1019.33 1019.31 1019.27 1019.23 1019.22 1019.22 1019.24 1019.26 1019.28 1019.27 1019.23 1019.13 1018.97 1018.75 1018.45 1018.08 1017.63 1017.11 1016.53 1015.89 1015.20 1014.48 1013.75 1013.00 1012.26 1011.53 1010.80 1010.08 1009.37 1008.67 1007.97 1007.29 1006.62 1005.98
1015.80 1016.54 1017.25 1017.88 1018.42 1018.84 1019.14 1019.32 1019.40 1019.39 1019.34 1019.26 1019.18 1019.11 1019.05 1019.00 1018.96 1018.91 1018.85 1018.75 1018.61 1018.42 1018.18 1017.87 1017.49 1017.04 1016.52 1015.94 1015.30 1014.62 1013.90 1013.16 1012.42 1011.66 1010.92 1010.17 1009.43 1008.69 1007.95 1007.21 1006.48 1005.77 1005.08
1016.19 1016.87 1017.52 1018.11 1018.60 1018.99 1019.25 1019.41 1019.46 1019.43 1019.35 1019.24 1019.12 1019.00 1018.89 1018.78 1018.67 1018.55 1018.41 1018.25 1018.06 1017.82 1017.54 1017.20 1016.81 1016.35 1015.84 1015.26 1014.64 1013.98 1013.28 1012.56 1011.82 1011.08 1010.32 1009.57 1008.80 1008.03 1007.25 1006.47 1005.69 1004.93 1004.20
1016.57 1017.20 1017.79 1018.33 1018.77 1019.11 1019.33 1019.45 1019.48 1019.43 1019.32 1019.18 1019.03 1018.87 1018.70 1018.54 1018.37 1018.18 1017.98 1017.75 1017.49 1017.20 1016.87 1016.50 1016.09 1015.62 1015.11 1014.56 1013.96 1013.32 1012.66 1011.96 1011.25 1010.51 1009.76 1009.00 1008.21 1007.40 1006.58 1005.75 1004.93 1004.12 1003.33
1016.97 1017.53 1018.07 1018.54 1018.92 1019.20 1019.38 1019.46 1019.45 1019.37 1019.24 1019.07 1018.89 1018.69 1018.49 1018.28 1018.05 1017.80 1017.54 1017.25 1016.94 1016.60 1016.22 1015.82 1015.39 1014.92 1014.41 1013.87 1013.30 1012.70 1012.07 1011.40 1010.71 1009.99 1009.24 1008.45 1007.64 1006.80 1005.93 1005.05 1004.17 1003.31 1002.47
1017.37 1017.88 1018.35 1018.76 1019.07 1019.29 1019.40 1019.42 1019.37 1019.25 1019.09 1018.90 1018.69 1018.47 1018.23 1017.98 1017.72 1017.43 1017.12 1016.78 1016.42 1016.04 1015.64 1015.21 1014.76 1014.28 1013.78 1013.26 1012.71 1012.13 1011.52 1010.88 1010.20 1009.49 1008.73 1007.92 1007.08 1006.19 1005.28 1004.35 1003.42 1002.50 1001.62
Thickness
5684 5682 5678 5676 5672 5670 5669 5668 5666 5664 5664 5663 5663 5662 5661 5662 5660 5657 5653 5651 5649 5649 5647 5646 5645 5643 5642 5641 5640 5638 5636 5635 5635 5634 5635 5635 5637 5638 5639 5640 5641 5642 5642
5679 5675 5671 5668 5665 5663 5662 5660 5658 5656 5654 5653 5653 5654 5653 5653 5652 5650 5645 5642 5640 5639 5637 5635 5634 5633 5632 5631 5630 5630 5629 5627 5626 5626 5626 5626 5627 5628 5629 5630 5630 5631 5632
5673 5669 5664 5660 5658 5656 5653 5651 5649 5647 5645 5644 5644 5645 5645 5644 5643 5641 5638 5633 5631 5628 5626 5625 5623 5622 5621 5620 5619 5619 5619 5618 5617 5616 5616 5616 5617 5618 5619 5620 5620 5621 5622
5669 5663 5658 5654 5651 5648 5644 5640 5637 5636 5635 5634 5635 5636 5636 5635 5634 5632 5629 5626 5622 5619 5616 5614 5612 5610 5609 5609 5607 5607 5606 5606 5605 5605 5605 5604 5605 5606 5608 5609 5610 5609 5610
5663 5658 5652 5647 5643 5639 5635 5631 5627 5627 5625 5625 5626 5627 5627 5627 5625 5623 5620 5617 5613 5610 5607 5604 5601 5599 5598 5597 5596 5595 5594 5594 5593 5593 5593 5592 5592 5593 5594 5596 5597 5598 5598
5657 5651 5645 5639 5634 5630 5626 5623 5620 5618 5616 5616 5618 5619 5619 5618 5617 5613 5611 5607 5604 5600 5596 5593 5590 5588 5586 5585 5583 5582 5581 5581 5580 5579 5578 5578 5578 5578 5580 5581 5583 5584 5584
5650 5645 5639 5633 5628 5623 5619 5616 5613 5609 5605 5606 5606 5606 5608 5608 5606 5603 5600 5596 5592 5589 5585 5582 5579 5576 5573 5571 5569 5568 5567 5566 5565 5563 5563 5562 5562 5563 5564 5565 5567 5568 5569
5644 5639 5633 5627 5621 5616 5610 5606 5603 5599 5595 5595 5592 5590 5589 5592 5591 5591 5587 5583 5580 5577 5574 5571 5567 5564 5561 5558 5556 5554 5552 5550 5548 5547 5546 5545 5545 5545 5547 5548 5549 5551 5552
5637 5632 5626 5620 5615 5609 5602 5598 5594 5590 5585 5583 5581 5577 5572 5569 5568 5573 5573 5570 5567 5563 5560 5558 5554 5550 5547 5544 5541 5538 5535 5533 5530 5529 5529 5528 5527 5527 5528 5529 5531 5532 5533
5629 5625 5618 5613 5607 5601 5595 5590 5585 5581 5577 5573 5569 5566 5563 5558 5552 5550 5554 5555 5553 5549 5546 5544 5540 5536 5532 5527 5524 5520 5517 5514 5513 5511 5510 5509 5509 5509 5509 5509 5509 5510 5511
5620 5616 5610 5605 5599 5593 5587 5581 5575 5571 5566 5562 5557 5554 5551 5547 5543 5537 5536 5538 5537 5534 5532 5530 5528 5525 5521 5515 5510 5504 5500 5497 5495 5493 5492 5491 5491 5490 5489 5488 5487 5486 5486
5611 5607 5602 5595 5590 5585 5578 5572 5566 5561 5556 5551 5546 5541 5537 5533 5529 5525 5522 5522 5521 5520 5519 5517 5515 5512 5508 5503 5498 5492 5487 5483 5479 5476 5475 5473 5472 5470 5467 5465 5463 5462 5461
5603 5599 5594 5587 5581 5576 5569 5563 5557 5551 5546 5540 5535 5530 5526 5522 5518 5512 5507 5505 5505 5506 5506 5504 5499 5494 5490 5486 5481 5476 5471 5467 5462 5459 5456 5454 5450 5446 5443 5440 5438 5436 5434
5598 5592 5586 5579 5573 5567 5561 5554 5547 5541 5536 5531 5526 5520 5515 5510 5505 5500 5493 5488 5487 5489 5488 5485 5481 5476 5471 5466 5461 5457 5453 5448 5444 5440 5436 5432 5428 5423 5418 5414 5410 5406 5403
5590 5584 5578 5571 5565 5558 5552 5545 5538 5532 5527 5521 5516 5510 5505 5500 5494 5488 5481 5474 5467 5466 5470 5467 5461 5458 5451 5446 5442 5437 5432 5427 5422 5417 5412 5406 5401 5395 5389 5383 5377 5371 5367
5582 5576 5569 5562 5555 5549 5542 5535 5529 5524 5517 5511 5506 5500 5494 5488 5481 5474 5468 5461 5454 5449 5449 5448 5440 5434 5430 5424 5419 5415 5409 5403 5396 5388 5381 5374 5369 5363 5357 5351 5345 5340 5338
5573 5566 5560 5553 5546 5539 5532 5526 5520 5514 5508 5501 5496 5491 5484 5477 5469 5462 5454 5447 5440 5433 5432 5433 5423 5416 5409 5403 5398 5392 5385 5376 5367 5357 5350 5343 5338 5334 5330 5328 5327 5325 5325
5562 5556 5550 5543 5537 5530 5523 5516 5510 5504 5498 5492 5486 5480 5473 5466 5457 5449 5441 5433 5425 5418 5413 5413 5408 5398 5390 5382 5377 5369 5360 5349 5339 5330 5323 5318 5316 5315 5314 5315 5317 5319 5321
5551 5546 5540 5533 5526 5519 5512 5505 5499 5493 5487 5481 5475 5468 5461 5453 5444 5435 5427 5418 5409 5403 5395 5390 5387 5378 5369 5358 5352 5344 5334 5323 5314 5307 5304 5302 5303 5304 5306 5308 5311 5314 5316
5541 5535 5528 5521 5514 5507 5500 5493 5487 5481 5475 5470 5464 5457 5449 5441 5432 5423 5413 5403 5395 5386 5377 5369 5365 5358 5348 5337 5326 5319 5315 5305 5298 5293 5293 5294 5296 5298 5299 5301 5304 5307 5310
5530 5524 5517 5509 5503 5496 5488 5480 5474 5469 5463 5457 5452 5445 5438 5429 5421 5411 5402 5392 5382 5371 5360 5351 5345 5338 5328 5316 5306 5299 5297 5294 5290 5285 5289 5289 5290 5292 5294 5295 5298 5302 5305
5519 5512 5505 5498 5492 5485 5476 5470 5463 5456 5450 5444 5439 5432 5424 5415 5407 5399 5390 5378 5366 5354 5343 5334 5325 5314 5305 5296 5291 5286 5283 5284 5288 5282 5281 5286 5284 5287 5289 5291 5295 5299 5302
5507 5500 5494 5487 5481 5472 5466 5458 5452 5445 5438 5432 5427 5420 5413 5404 5395 5385 5375 5364 5350 5335 5323 5313 5304 5294 5289 5283 5279 5277 5275 5276 5278 5275 5272 5282 5283 5284 5285 5287 5289 5294 5297
5496 5489 5483 5477 5470 5463 5455 5447 5441 5434 5427 5421 5416 5408 5400 5391 5381 5372 5363 5349 5333 5318 5306 5296 5289 5283 5278 5274 5272 5271 5270 5271 5272 5268 5263 5270 5278 5280 5283 5282 5283 5288 5293
5485 5479 5472 5466 5459 5452 5444 5437 5430 5421 5415 5409 5403 5395 5387 5378 5369 5360 5348 5332 5319 5304 5291 5282 5277 5274 5270 5267 5265 5263 5260 5258 5263 5266 5258 5258 5266 5272 5278 5279 5281 5284 5289
5474 5468 5462 5455 5448 5440 5434 5427 5420 5411 5404 5397 5389 5381 5372 5364 5354 5342 5329 5316 5304 5293 5284 5277 5271 5266 5263 5260 5256 5252 5248 5246 5249 5254 5253 5250 5253 5253 5271 5278 5276 5277 5281